Location: Bouchavesnes-Bergen
(49.9859°N, 2.9203°E)
Time: 23:28:29
(UTC+00:00)

SJ-6F - Pass Details

Date: 09 March 2021
Orbit: 572 x 592 km, 97.8° (Epoch: 13 April)

Event Time Altitude Azimuth Distance (km) Brightness Sun altitude
Rises 04:28:42 0° 13° (NNE) 2,834 8.3 -17.7°
Reaches altitude 10° 04:30:52 10° 13° (NNE) 1,930 7.4 -17.4°
Maximum altitude 04:35:04 89° 295° (WNW) 599 4.4 -16.8°
Drops below altitude 10° 04:39:15 10° 196° (SSW) 1,921 6.8 -16.1°
Enters shadow 04:39:49 - 196° (SSW) 2,157 7.1 -16.0°
